Date,TemperatureHighF,TemperatureAvgF,TemperatureLowF,DewpointHighF,DewpointAvgF,DewpointLowF,HumidityHigh,HumidityAvg,HumidityLow,PressureMaxIn,PressureMinIn,WindSpeedMaxMPH,WindSpeedAvgMPH,GustSpeedMaxMPH,PrecipitationSumIn
2013-3-1,31.1,28.3,26.1,18.1,14.7,12.6,60,56,50,30.09,29.94,15,11,33,0.00
2013-3-2,33.4,27.5,24.8,15.8,12.0,7.7,59,52,45,30.06,30.00,13,10,30,0.00
2013-3-3,34.5,25.7,17.8,11.8,9.2,6.1,66,50,37,30.06,29.97,14,9,28,0.00
2013-3-4,38.3,25.6,15.1,17.4,10.9,5.5,70,54,36,30.15,30.06,8,5,16,0.00
2013-3-5,37.8,28.8,21.9,19.4,16.4,12.6,82,60,46,30.15,29.82,20,12,35,0.00
2013-3-6,44.8,35.1,28.0,23.7,21.1,16.9,75,57,43,30.21,29.82,17,7,32,0.00
2013-3-7,41.2,34.7,27.9,25.9,19.9,10.9,69,55,44,30.39,30.21,12,6,26,0.00
2013-3-8,47.1,31.7,21.2,23.4,17.3,10.6,77,56,37,30.50,30.39,7,3,13,0.00
2013-3-9,46.8,34.8,23.9,33.1,24.5,18.3,97,68,42,30.41,30.06,16,6,24,0.00
2013-3-10,66.0,48.3,34.9,37.8,29.9,24.8,84,51,33,30.06,29.82,14,7,34,0.00
2013-3-11,52.9,47.0,37.9,50.2,37.2,26.2,100,70,43,29.82,29.50,20,12,36,0.24
2013-3-12,41.7,35.7,28.9,28.2,24.0,18.1,76,62,50,29.94,29.74,18,12,36,0.00
2013-3-13,35.1,30.5,27.3,26.4,16.4,9.3,88,57,43,30.18,29.85,23,15,39,0.00
2013-3-14,44.1,31.5,22.3,18.1,12.4,6.8,59,45,35,30.24,30.09,15,9,32,0.00
2013-3-15,43.9,36.1,28.8,33.1,24.0,14.4,91,62,46,30.09,29.85,13,7,24,0.04
2013-3-16,35.4,31.3,28.9,33.6,24.8,16.2,100,78,55,30.03,29.79,6,0,11,0.00
2013-3-17,36.9,29.1,21.0,17.4,13.1,9.9,64,51,39,30.27,30.03,13,4,28,0.12
2013-3-18,36.1,31.7,24.4,36.1,25.7,13.5,100,79,58,30.18,29.56,29,16,39,0.04
2013-3-19,35.4,29.3,24.8,30.6,13.4,8.1,82,51,43,29.94,29.65,29,20,43,0.00
2013-3-20,34.9,26.7,19.0,13.5,8.5,2.3,56,46,37,29.94,29.88,21,14,35,0.00
2013-3-21,36.5,26.0,16.3,19.2,10.8,2.3,68,52,42,29.94,29.85,19,14,34,0.00
2013-3-22,43.3,31.9,26.2,19.2,13.2,9.1,59,46,35,30.03,29.94,16,11,33,0.00
2013-3-23,45.5,31.2,21.6,24.3,18.0,12.4,93,60,37,30.09,30.00,10,4,23,0.00
2013-3-24,39.4,31.8,23.2,25.3,19.4,14.2,93,61,42,30.06,29.65,23,10,38,0.00
2013-3-25,39.7,34.8,31.3,27.9,21.9,17.1,87,60,47,29.88,29.59,25,15,40,0.00
2013-3-26,48.7,38.3,33.8,25.7,21.8,19.6,62,52,37,30.09,29.88,17,9,32,0.00
2013-3-27,51.1,39.9,29.3,25.0,21.0,17.6,70,48,34,30.18,30.09,19,14,33,0.00
2013-3-28,54.1,40.8,31.6,27.1,20.7,15.1,61,45,33,30.27,30.18,14,8,26,0.00
2013-3-29,54.1,40.4,27.7,27.1,19.9,14.0,67,45,33,30.30,30.21,11,6,22,0.00
2013-3-30,56.1,40.1,24.8,28.6,22.8,16.3,87,53,32,30.27,30.00,11,5,22,0.00
2013-3-31,62.1,47.4,34.0,37.8,28.8,22.3,73,50,32,30.00,29.68,21,9,36,0.00